Location: Costa Valle Imagna
(45.8000°N, 9.5000°E)
Time: 16:32:46
(UTC+00:00)

STARLINK-1103 - Pass Details

Date: 17 February 2020
Orbit: 548 x 551 km, 53.0° (Epoch: 07 April)

Event Time Altitude Azimuth Distance (km) Brightness Sun altitude
Exits shadow 04:06:51 - 173° (S) 2,376 6.9 -24.2°
Reaches altitude 10° 04:09:27 10° 146° (SSE) 1,807 6.6 -23.7°
Drops below altitude 10° 04:12:10 10° 107° (ESE) 1,810 7.2 -23.3°
Enters shadow 05:12:38 -66° 235° (SW) 12,232 10.4 -12.7°
Maximum altitude 05:49:37 64° 144° (SE) 604 4.1 -6.4°
